OpenBCM V1.07b12 (Linux)

Packet Radio Mailbox

DB0FHN

[JN59NK Nuernberg]

 Login: GUEST





  
I0OJJ  > KEPS     03.03.25 06:22l 336 Lines 15914 Bytes #999 (0) @ AMSAT
BID : ORB25062.1
Read: DL5MBW DJ6UX GUEST
Subj: 2Line Orbital Elements 25062.AMSAT
Path: DB0FHN<DB0FFL<OE5XBL<OE6XPE<DB0ERF<DK0WUE<PD0LPM<IR0AAB<I0OJJ<I0OJJ
Sent: 250303/0345z @:I0OJJ.ITA.EU [Rome] obcm1.08-6-g5b69

>From i0ojj%i0ojj.ita.eu@i0ojj.ampr.org Mon Mar  3 04:45:07 2025
Received: from i0ojj.ampr.org by i0ojj.ampr.org (JNOS2.0p.6) with SMTP
	id AA17027099 ; Mon, 03 Mar 2025 04:45:07 +0100
Message-Id: <ORB25062.1@i0ojj.bbs>
>From: i0ojj@i0ojj.ita.eu
X-JNOS-User-Port: Telnet   (i0ojj @ 44.134.109.10)  -> Sending message

From: I0OJJ @ I0OJJ.ITA.EU (Gustavo)
To:   KEPS @ AMSAT
X-Info: This message was generated automatically


QST de W1STR

AMSAT Orbital Elements for Amateur Satellites in TLE Format
>From Orbital Analysis Office
New England Sci-Tech STEM Education Center
Natick, MA March 03, 2025
To all radio amateurs


These element sets describe the orbits of various satellites 
in use by the amateur radio community. For details see:
www.amsat.org/keplerian-elements-formats/

A daily update of element sets is available at:
www.amsat.org/tle/daily-bulletin.txt
or without bulletin text:
www.amsat.org/tle/dailytle.txt


AO-07
1 07530U 74089B   25061.85747216 -.00000051  00000-0 -26722-4 0  9998
2 07530 101.9948  65.0665 0011970 311.4630 119.1202 12.53686694301698
UO-11
1 14781U 84021B   25061.82681798  .00002752  00000-0  29955-3 0  9998
2 14781  97.7430  30.2536 0006495 312.2668  47.7998 14.88818972207946
AO-27
1 22825U 93061C   25061.12418754  .00000319  00000-0  13904-3 0  9997
2 22825  98.7507 122.1276 0009150  49.8906 310.3076 14.30740370639499
FO-29
1 24278U 96046B   25061.67772581  .00000011  00000-0  49391-4 0  9997
2 24278  98.5858 328.5424 0348999 238.7155 117.9372 13.53239213409644
NOAA-15
1 25338U 98030A   25061.80229149  .00000361  00000-0  16653-3 0  9994
2 25338  98.5468  89.2625 0009154 290.1400  69.8795 14.26898495394310
GO-32
1 25397U 98043D   25061.49942221  .00000263  00000-0  13394-3 0  9991
2 25397  98.9602  38.6059 0002169 113.6886 246.4520 14.24264320384189
ISS
1 25544U 98067A   25061.57006296  .00014645  00000-0  26707-3 0  9994
2 25544  51.6363 115.1019 0006087 335.9132 188.1830 15.49668581498622
NO-44
1 26931U 01043C   25061.30766976  .00000583  00000-0  24958-3 0  9994
2 26931  67.0519  24.4929 0005829 265.6923  94.3513 14.31639453222895
SO-50
1 27607U 02058C   25061.45229404  .00002601  00000-0  34713-3 0  9991
2 27607  64.5544 146.4099 0044704 358.5418   1.5549 14.81061138194548
CO-55
1 27844U 03031E   25061.60254531  .00000803  00000-0  36972-3 0  9993
2 27844  98.6796  71.1458 0010783 112.6359 247.5962 14.23849925124586
CO-57
1 27848U 03031J   25061.50529343  .00000687  00000-0  32287-3 0  9997
2 27848  98.6824  71.1291 0010499 128.1239 232.0887 14.23205878124274
RS-22
1 27939U 03042A   25061.85888650  .00002659  00000-0  43297-3 0  9991
2 27939  98.3166 229.0019 0010939 326.6591 169.7655 14.71864062146304
NOAA-18
1 28654U 05018A   25061.81039200  .00000369  00000-0  21898-3 0  9995
2 28654  98.8485 142.3831 0014816  53.2983 306.9549 14.13530864 19798
CO-58
1 28895U 05043F   25061.80127365  .00003516  00000-0  58969-3 0  9995
2 28895  98.2321 205.0490 0014030 258.8103 101.1525 14.70309749 32659
CO-65
1 32785U 08021C   25060.85326389  .00011590  00000-0  87374-3 0  9991
2 32785  97.7765  31.4603 0010292 178.5620 181.5636 15.02581647914168
AAUSAT2
1 32788U 08021F   25061.55415238  .00109677  00000-0  18012-2 0  9990
2 32788  97.6064  54.1167 0004653  81.5949 278.5830 15.52008727917951
CO-66
1 32791U 08021J   25061.16855874  .00020868  00000-0  11286-2 0  9995
2 32791  97.7204  39.3059 0006374 128.1168 232.0639 15.14680021915502
RS-30
1 32953U 08025A   25061.81485144  .00000026  00000-0  11516-3 0  9991
2 32953  82.5002 288.6230 0018646 261.4810  98.4157 12.43159623761258
NOAA-19
1 33591U 09005A   25061.80067738  .00000325  00000-0  19737-3 0  9998
2 33591  99.0100 125.9056 0012778 283.1251  76.8494 14.13298822828159
SRMSAT
1 37841U 11058D   25061.28026828  .00000639  00000-0  20400-3 0  9995
2 37841  19.9731  35.4299 0011856  53.6000  81.5137 14.11374256691063
ZACUBE-1
1 39417U 13066B   25061.45833016  .00009671  00000-0  87208-3 0  9995
2 39417  97.7692  19.1732 0046571  25.4465 334.9034 14.94919276610092
Delfi-N3xt
1 39428U 13066N   25061.33448659  .00014435  00000-0  15428-2 0  9997
2 39428  97.8377 340.2423 0087479 328.3411  31.2560 14.86057213604323
GOMX-1
1 39430U 13066Q   25061.81431670  .00003569  00000-0  56417-3 0  9998
2 39430  97.6971 286.4983 0134621 147.9046 213.0446 14.66958662600928
LO-74
1 39440U 13066AA  25061.84741376  .00006338  00000-0  66312-3 0  9991
2 39440  97.8406   7.2452 0065007 144.1035 216.4576 14.88410354607947
AO-73
1 39444U 13066AE  25061.43717571  .00015236  00000-0  12131-2 0  9996
2 39444  97.7547  23.2778 0041894   3.9602 356.1945 14.99772724608717
DTUSAT-2
1 40030U 14033W   25061.44179240  .00012965  00000-0  89547-3 0  9992
2 40030  98.0460  28.6894 0011285  45.7753 314.4397 15.05849629581465
EO-80
1 40032U 14033Y   25061.46736777  .00012548  00000-0  86514-3 0  9998
2 40032  98.0333  28.5060 0008226 350.7400   9.3673 15.05946849581446
LILACSAT-2
1 40908U 15049K   25061.80857665  .00015570  00000-0  45256-3 0  9992
2 40908  97.5154  79.9457 0011195 145.5545 214.6426 15.35492197523057
IO-86
1 40931U 15052B   25038.81889873  .00001817  00000-0  15548-3 0  9993
2 40931   6.0001 108.1159 0012838 187.7041 172.2889 14.78568669506492
Horyu-4
1 41340U 16012D   25061.38698554  .00027857  00000-0  90816-3 0  9990
2 41340  30.9995  76.1670 0007076 123.5972 236.5347 15.30590173497548
Lapan A3
1 41603U 16040E   25061.83433518  .00005328  00000-0  19310-3 0  9999
2 41603  97.1400  70.3733 0009227 259.6836 100.3365 15.28731249482698
CAS-2T
1 41847U 16066G   25061.27022670  .00003168  00000-0  45730-3 0  9993
2 41847  98.4290 136.5882 0348647 118.7976 244.8694 14.43056633436692
CAS-4B
1 42759U 17034B   25061.77720462  .00053008  00000-0  93654-3 0  9997
2 42759  43.0106 184.8099 0017965 317.4845  42.4623 15.49381320427204
CAS-4A
1 42761U 17034D   25061.80180694  .00055218  00000-0  95605-3 0  9994
2 42761  43.0143 182.5499 0019136 323.5837  36.3720 15.49913251427224
TechnoSat
1 42829U 17042E   25061.46447184  .00006269  00000-0  50053-3 0  9990
2 42829  97.3893 234.9527 0011921 260.2362  99.7516 15.00551347415854
AO-91
1 43017U 17073E   25061.57074869  .00011822  00000-0  63025-3 0  9996
2 43017  97.5450 294.9114 0181812 142.8610 218.5357 15.02133899394334
S-Net D
1 43186U 18014G   25061.30402304  .00007986  00000-0  49314-3 0  9990
2 43186  97.5712 325.2849 0008657 194.3821 165.7163 15.10124931387387
S-Net B
1 43187U 18014H   25061.30822975  .00008178  00000-0  50501-3 0  9995
2 43187  97.5723 325.2557 0009529 190.0470 170.0570 15.10109984387380
S-Net A
1 43188U 18014J   25061.70229456  .00006993  00000-0  43221-3 0  9999
2 43188  97.5723 325.7828 0009522 189.5644 170.5406 15.10134105387449
S-Net C
1 43189U 18014K   25061.31040317  .00008110  00000-0  50070-3 0  9997
2 43189  97.5746 325.3925 0011201 184.5198 175.5932 15.10106462385931
Ten-Koh
1 43677U 18084G   25061.48204823  .00006426  00000-0  52636-3 0  9996
2 43677  98.0908 229.7912 0009839 234.1065 125.9244 14.99624981345388
PO-101
1 43678U 18084H   25061.79540321  .00004339  00000-0  37770-3 0  9990
2 43678  98.0943 234.2336 0008101 254.4594 105.5732 14.97469070345595
QO-100
1 43700U 18090A   25061.85808381  .00000141  00000-0  00000+0 0  9992
2 43700   0.0146 115.0149 0001331 252.5763 127.9864  1.00273202 23195
MinXSS-2
1 43758U 18099A   25061.75534729  .00018661  00000-0  84046-3 0  9997
2 43758  97.5146 127.7178 0013913 142.0811 218.1406 15.21027906341922
AO-95
1 43770U 18099N   25061.11254165  .00016083  00000-0  87936-3 0  9991
2 43770  97.5057 120.4130 0011475 192.3624 167.7328 15.14305634341488
RANGE-A
1 43773U 18099R   25061.56162567  .00007902  00000-0  52319-3 0  9994
2 43773  97.4625 112.8526 0012190 166.5475 193.6080 15.07528169341291
MOVE-II
1 43780U 18099Y   25061.73651836  .00073328  00000-0  15498-2 0  9994
2 43780  97.4792 132.3953 0004167 158.0385 202.1043 15.44896685342407
SNUSat 2
1 43782U 18099AA  25061.10917401  .00014149  00000-0  82169-3 0  9996
2 43782  97.4745 117.9365 0013693 135.4803 224.7531 15.12147284341456
SnugLite
1 43784U 18099AC  25061.55965127  .00013543  00000-0  73566-3 0  9993
2 43784  97.4560 117.7702 0004810 132.5535 227.6104 15.14621257341634
ITASat 1
1 43786U 18099AE  25061.14733186  .00011071  00000-0  66752-3 0  9991
2 43786  97.4714 117.7525 0015111 184.0786 176.0323 15.10829991341435
EAGLET 1
1 43790U 18099AJ  25061.64549751  .00007132  00000-0  47138-3 0  9994
2 43790  97.4901 118.4794 0012920 164.1154 196.0482 15.07621707341155
ESEO
1 43792U 18099AL  25061.69406069  .00003931  00000-0  30446-3 0  9992
2 43792  97.4581 113.0586 0011464 134.5312 225.6852 15.01942212340970
CSIM
1 43793U 18099AM  25061.26771140  .00083364  00000-0  17459-2 0  9997
2 43793  97.4977 133.9331 0006434 132.4770 227.7023 15.45111731342174
JO-97
1 43803U 18099AX  25061.79229485  .00015405  00000-0  77494-3 0  9994
2 43803  97.4800 121.9089 0009057 128.6474 231.5571 15.17282672341778
Suomi 100
1 43804U 18099AY  25061.86185643  .00013113  00000-0  69563-3 0  9992
2 43804  97.4870 121.5161 0014281 129.7091 230.5403 15.15392316341739
ISAT
1 43879U 18111D   25061.70082988  .00024412  00000-0  10024-2 0  9991
2 43879  97.6023 334.2701 0010025 169.8724 190.2716 15.24159771336588
UWE-4
1 43880U 18111E   25061.52151883  .00018817  00000-0  84085-3 0  9995
2 43880  97.5964 333.1766 0012691 186.4073 173.7002 15.21312828338548
Sparrow
1 43881U 18111F   25061.81915668  .00024238  00000-0  96833-3 0  9995
2 43881  97.6150 336.9202 0006154 206.4092 153.6833 15.25112255336705
Prox-1
1 44339U 19036A   25061.20641362  .00015668  00000-0  21527-2 0  9995
2 44339  23.9983 353.1158 0007331  17.3554 342.7192 14.76673960303298
